FLOCK 4BE-20 (60489 NORAD) Tracking and Keplerian Element Data

This shows tracking and keplerian element data for the satellite.

Feedback or suggestion? Click here.




ElementValue
Catalog60489
NameFLOCK 4BE-20
Epoch Orbit864
Epoch Day286.76629099
Epoch Year2024
RAAN1.4011
Inclination97.4331
Eccentricity0.0004426
Argument of Perigee268.3522
Mean Anonmoly91.7205
Mean Motion15.19540976
Decay Rate0.00018087
L11 60489U 24149X 24286.76629099 .00018087 00000+0 85256-3 0 9999
L22 60489 97.4331 1.4011 0004426 268.3522 91.7205 15.19540976 8646



Live tracking and technical data element details for FLOCK 4BE-20 (NORAD 60489). FLOCK 4BE-20 can be tracked NOW for your location showing map with azimuth and elevation plus other details from your city location.







IsCatalogInMostPopularTable: catalog: 60489, numindb: 7
Update: records affected: 1



GetName: 60489 FLOCK 4BE-20

Hit Count: updated at: Wed, 04 Dec 2024 18:53:33 GMT